,,,PA_Meas_PMT16A,,PR_Meas_QMR101_102,,RH_Meas_QMH101,,SR_Meas_QMS101,,TA_Meas_QMH101,,GenWind,,GenWind,
date,time,status,PA,status,PR,status,RH,status,SR,status,TA,status,DirAvg,status,SpdAvg,
2011-01-17, 00:00:05,VALID,999.305,VALID,0,VALID,90.1668,VALID,0,VALID,24.2086,VALID,80,VALID,0.516797,
2011-01-17, 00:01:05,VALID,999.25,VALID,0,VALID,90.1821,VALID,0,VALID,24.1891,VALID,80,VALID,0.569141,
2011-01-17, 00:02:05,VALID,999.252,VALID,0,VALID,90.1668,VALID,0,VALID,24.1891,VALID,80,VALID,0.736328,
2011-01-17, 00:03:05,VALID,999.251,VALID,0,VALID,90.1363,VALID,0,VALID,24.1891,VALID,80,VALID,0.644922,
2011-01-17, 00:04:05,VALID,999.214,VALID,0,VALID,90.1363,VALID,0,VALID,24.1891,VALID,80,VALID,0.670313,
2011-01-17, 00:05:05,VALID,999.213,VALID,0,VALID,90.1516,VALID,0,VALID,24.1872,VALID,80,VALID,0.753516,
2011-01-17, 00:06:05,VALID,999.173,VALID,0,VALID,90.0448,VALID,0,VALID,24.1891,VALID,80,VALID,0.913281,
2011-01-17, 00:07:05,VALID,999.116,VALID,0,VALID,89.9914,VALID,0,VALID,24.1891,VALID,85,VALID,0.9,
2011-01-17, 00:08:05,VALID,999.093,VALID,0,VALID,89.9837,VALID,0,VALID,24.2086,VALID,95,VALID,1.08203,
2011-01-17, 00:09:05,VALID,999.068,VALID,0,VALID,90.0448,VALID,0,VALID,24.2263,VALID,99,VALID,1.05313,
2011-01-17, 00:10:05,VALID,998.993,VALID,0,VALID,90.1058,VALID,0,VALID,24.2281,VALID,104,VALID,0.929688,
2011-01-17, 00:11:05,VALID,998.96,VALID,0,VALID,90.2203,VALID,0,VALID,24.2263,VALID,104,VALID,0.982031,
2011-01-17, 00:12:05,VALID,998.932,VALID,0,VALID,90.35,VALID,0,VALID,24.2281,VALID,104,VALID,0.976953,
2011-01-17, 00:13:05,VALID,998.927,VALID,0,VALID,90.4415,VALID,0,VALID,24.2263,VALID,104,VALID,0.792188,
2011-01-17, 00:14:05,VALID,998.956,VALID,0,VALID,90.5331,VALID,0,VALID,24.2067,VALID,104,VALID,0.670703,
2011-01-17, 00:15:05,VALID,998.898,VALID,0,VALID,90.5941,VALID,0,VALID,24.2281,VALID,104,VALID,0.344141,
2011-01-17, 00:16:05,VALID,998.888,VALID,0,VALID,90.6323,VALID,0,VALID,24.2067,VALID,104,VALID,0.429688,
2011-01-17, 00:17:05,VALID,998.891,VALID,0,VALID,90.7162,VALID,0,VALID,24.2086,VALID,91,VALID,0.687891,
2011-01-17, 00:18:05,VALID,998.884,VALID,0,VALID,90.7009,VALID,0,VALID,24.1872,VALID,61,VALID,0.847266,
2011-01-17, 00:19:05,VALID,998.889,VALID,0,VALID,90.678,VALID,0,VALID,24.1696,VALID,60,VALID,0.933984,
2011-01-17, 00:20:05,VALID,998.887,VALID,0,VALID,90.6628,VALID,0,VALID,24.1482,VALID,60,VALID,0.696094,
2011-01-17, 00:21:05,VALID,998.865,VALID,0,VALID,90.6551,VALID,0,VALID,24.15,VALID,48,VALID,1.0125,
2011-01-17, 00:22:05,VALID,998.85,VALID,0,VALID,90.6857,VALID,0,VALID,24.15,VALID,29,VALID,0.495703,
2011-01-17, 00:23:05,VALID,998.831,VALID,0,VALID,90.7238,VALID,0,VALID,24.1092,VALID,29,VALID,0.0257812,
2011-01-17, 00:24:05,VALID,998.816,VALID,0,VALID,90.762,VALID,0,VALID,24.0897,VALID,29,VALID,0,
2011-01-17, 00:25:05,VALID,998.847,VALID,0,VALID,90.823,VALID,0,VALID,24.0897,VALID,29,VALID,0.212109,
2011-01-17, 00:26:05,VALID,998.84,VALID,0,VALID,90.884,VALID,0,VALID,24.111,VALID,29,VALID,0.189063,
2011-01-17, 00:27:05,VALID,998.859,VALID,0,VALID,90.9298,VALID,0,VALID,24.0701,VALID,29,VALID,0.163281,
2011-01-17, 00:28:05,VALID,998.842,VALID,0,VALID,90.9832,VALID,0,VALID,24.0506,VALID,29,VALID,0.676953,
2011-01-17, 00:29:05,VALID,998.843,VALID,0,VALID,91.0824,VALID,0,VALID,24.0915,VALID,22,VALID,0.978906,
2011-01-17, 00:30:05,VALID,998.832,VALID,0,VALID,91.1968,VALID,0,VALID,24.0915,VALID,27,VALID,0.939844,
2011-01-17, 00:31:05,VALID,998.818,VALID,0,VALID,91.2503,VALID,0,VALID,24.072,VALID,25,VALID,1.03945,
2011-01-17, 00:32:05,VALID,998.836,VALID,0,VALID,91.2655,VALID,0,VALID,24.072,VALID,20,VALID,1.01367,
2011-01-17, 00:33:05,VALID,998.821,VALID,0,VALID,91.2884,VALID,0,VALID,24.072,VALID,19,VALID,0.856641,
2011-01-17, 00:34:05,VALID,998.839,VALID,0,VALID,91.3037,VALID,0,VALID,24.0525,VALID,12,VALID,0.958984,
2011-01-17, 00:35:05,VALID,998.816,VALID,0,VALID,91.3266,VALID,0,VALID,24.0506,VALID,12,VALID,0.899219,
2011-01-17, 00:36:05,VALID,998.781,VALID,0,VALID,91.3113,VALID,0,VALID,24.0525,VALID,12,VALID,0.954687,
2011-01-17, 00:37:05,VALID,998.744,VALID,0,VALID,91.3266,VALID,0,VALID,24.0525,VALID,12,VALID,0.865234,
2011-01-17, 00:38:05,VALID,998.735,VALID,0,VALID,91.3113,VALID,0,VALID,24.0525,VALID,12,VALID,0.737109,
2011-01-17, 00:39:05,VALID,998.734,VALID,0,VALID,91.2884,VALID,0,VALID,24.0311,VALID,12,VALID,0.835938,
2011-01-17, 00:40:05,VALID,998.698,VALID,0,VALID,91.235,VALID,0,VALID,24.0116,VALID,12,VALID,0.659375,
2011-01-17, 00:41:05,VALID,998.684,VALID,0,VALID,91.1587,VALID,0,VALID,24.0134,VALID,12,VALID,0.646875,
2011-01-17, 00:42:05,VALID,998.654,VALID,0,VALID,91.1434,VALID,0,VALID,23.9939,VALID,19,VALID,0.739844,
2011-01-17, 00:43:05,VALID,998.636,VALID,0,VALID,91.1358,VALID,0,VALID,23.9921,VALID,58,VALID,0.905469,
2011-01-17, 00:44:05,VALID,998.656,VALID,0,VALID,91.1358,VALID,0,VALID,24.0116,VALID,58,VALID,0.566016,
2011-01-17, 00:45:05,VALID,998.663,VALID,0,VALID,91.1129,VALID,0,VALID,24.0329,VALID,58,VALID,0.442187,
2011-01-17, 00:46:05,VALID,998.622,VALID,0,VALID,91.1053,VALID,0,VALID,24.0116,VALID,58,VALID,0.524219,
2011-01-17, 00:47:05,VALID,998.556,VALID,0,VALID,91.09,VALID,0,VALID,24.0116,VALID,58,VALID,0.559375,
2011-01-17, 00:48:05,VALID,998.55,VALID,0,VALID,91.0977,VALID,0,VALID,24.0329,VALID,58,VALID,0.692187,
2011-01-17, 00:49:05,VALID,998.538,VALID,0,VALID,91.0977,VALID,0,VALID,24.0134,VALID,58,VALID,0.569922,
2011-01-17, 00:50:05,VALID,998.569,VALID,0,VALID,91.09,VALID,0,VALID,24.0329,VALID,58,VALID,0.397266,
2011-01-17, 00:51:05,VALID,998.547,VALID,0,VALID,91.1129,VALID,0,VALID,23.9921,VALID,58,VALID,0.235938,
2011-01-17, 00:52:05,VALID,998.515,VALID,0,VALID,91.1053,VALID,0,VALID,23.9726,VALID,58,VALID,0.166406,
2011-01-17, 00:53:05,VALID,998.532,VALID,0,VALID,91.1282,VALID,0,VALID,23.9744,VALID,58,VALID,0.0828125,
2011-01-17, 00:54:05,VALID,998.531,VALID,0,VALID,91.174,VALID,0,VALID,23.9744,VALID,58,VALID,0,
2011-01-17, 00:55:05,VALID,998.536,VALID,0,VALID,91.1663,VALID,0,VALID,23.9744,VALID,58,VALID,0,
2011-01-17, 00:56:05,VALID,998.51,VALID,0,VALID,91.1968,VALID,0,VALID,23.9549,VALID,58,VALID,0,
2011-01-17, 00:57:05,VALID,998.452,VALID,0,VALID,91.2197,VALID,0,VALID,23.9336,VALID,58,VALID,0,
2011-01-17, 00:58:05,VALID,998.456,VALID,0,VALID,91.2655,VALID,0,VALID,23.9354,VALID,58,VALID,0,
2011-01-17, 00:59:05,VALID,998.45,VALID,0,VALID,91.3037,VALID,0,VALID,23.9159,VALID,58,VALID,0,
2011-01-17, 01:00:05,VALID,998.489,VALID,0,VALID,91.3494,VALID,0,VALID,23.9159,VALID,58,VALID,0,
2011-01-17, 01:01:05,VALID,998.514,VALID,0,VALID,91.38,VALID,0,VALID,23.9159,VALID,58,VALID,0,
2011-01-17, 01:02:05,VALID,998.531,VALID,0,VALID,91.441,VALID,0,VALID,23.8945,VALID,58,VALID,0.275391,
2011-01-17, 01:03:05,VALID,998.563,VALID,0,VALID,91.502,VALID,0,VALID,23.9159,VALID,58,VALID,0.403516,
2011-01-17, 01:04:05,VALID,998.558,VALID,0,VALID,91.5554,VALID,0,VALID,23.9354,VALID,58,VALID,0.546484,
2011-01-17, 01:05:05,VALID,998.596,VALID,0,VALID,91.6088,VALID,0,VALID,23.9354,VALID,58,VALID,0.572266,
2011-01-17, 01:06:05,VALID,998.594,VALID,0,VALID,91.6241,VALID,0,VALID,23.9549,VALID,58,VALID,0.522656,
2011-01-17, 01:07:05,VALID,998.586,VALID,0,VALID,91.6546,VALID,0,VALID,23.9336,VALID,58,VALID,0.41875,
2011-01-17, 01:08:05,VALID,998.555,VALID,0,VALID,91.647,VALID,0,VALID,23.9549,VALID,58,VALID,0.439063,
2011-01-17, 01:09:05,VALID,998.523,VALID,0,VALID,91.6394,VALID,0,VALID,23.9549,VALID,58,VALID,0.233203,
2011-01-17, 01:10:05,VALID,998.555,VALID,0,VALID,91.6546,VALID,0,VALID,23.9531,VALID,58,VALID,0.301172,
2011-01-17, 01:11:05,VALID,998.54,VALID,0,VALID,91.6394,VALID,0,VALID,23.9336,VALID,58,VALID,0.289453,
2011-01-17, 01:12:05,VALID,998.491,VALID,0,VALID,91.6165,VALID,0,VALID,23.9549,VALID,58,VALID,0.287109,
2011-01-17, 01:13:05,VALID,998.457,VALID,0,VALID,91.6317,VALID,0,VALID,23.9354,VALID,58,VALID,0.419922,
2011-01-17, 01:14:05,VALID,998.406,VALID,0,VALID,91.6241,VALID,0,VALID,23.9336,VALID,58,VALID,0.283594,
2011-01-17, 01:15:05,VALID,998.373,VALID,0,VALID,91.647,VALID,0,VALID,23.9354,VALID,58,VALID,0.254297,
2011-01-17, 01:16:05,VALID,998.331,VALID,0,VALID,91.6088,VALID,0,VALID,23.8963,VALID,58,VALID,0.216406,
2011-01-17, 01:17:05,VALID,998.302,VALID,0,VALID,91.6012,VALID,0,VALID,23.875,VALID,58,VALID,0.015625,
2011-01-17, 01:18:05,VALID,998.291,VALID,0,VALID,91.647,VALID,0,VALID,23.8768,VALID,58,VALID,0,
2011-01-17, 01:19:05,VALID,998.292,VALID,0,VALID,91.6317,VALID,0,VALID,23.8555,VALID,58,VALID,0.383203,
2011-01-17, 01:20:05,VALID,998.286,VALID,0,VALID,91.6775,VALID,0,VALID,23.8378,VALID,58,VALID,0.349219,
2011-01-17, 01:21:05,VALID,998.267,VALID,0,VALID,91.708,VALID,0,VALID,23.8165,VALID,58,VALID,0.142578,
2011-01-17, 01:22:05,VALID,998.257,VALID,0,VALID,91.7309,VALID,0,VALID,23.797,VALID,58,VALID,0.00507812,
2011-01-17, 01:23:05,VALID,998.216,VALID,0,VALID,91.7767,VALID,0,VALID,23.7775,VALID,58,VALID,0.480078,
2011-01-17, 01:24:05,VALID,998.242,VALID,0,VALID,91.8072,VALID,0,VALID,23.7988,VALID,55,VALID,0.711328,
2011-01-17, 01:25:05,VALID,998.209,VALID,0,VALID,91.792,VALID,0,VALID,23.7775,VALID,55,VALID,0.855469,
2011-01-17, 01:26:05,VALID,998.206,VALID,0,VALID,91.7767,VALID,0,VALID,23.7597,VALID,55,VALID,0.646094,
2011-01-17, 01:27:05,VALID,998.234,VALID,0,VALID,91.7767,VALID,0,VALID,23.7597,VALID,55,VALID,0.725391,
2011-01-17, 01:28:05,VALID,998.282,VALID,0,VALID,91.7843,VALID,0,VALID,23.7384,VALID,55,VALID,0.723828,
2011-01-17, 01:29:05,VALID,998.309,VALID,0,VALID,91.7767,VALID,0,VALID,23.7384,VALID,55,VALID,0.482031,
2011-01-17, 01:30:05,VALID,998.322,VALID,0,VALID,91.7691,VALID,0,VALID,23.7579,VALID,55,VALID,0.417188,
2011-01-17, 01:31:05,VALID,998.311,VALID,0,VALID,91.7691,VALID,0,VALID,23.7597,VALID,55,VALID,0.505078,
2011-01-17, 01:32:05,VALID,998.302,VALID,0,VALID,91.7767,VALID,0,VALID,23.7579,VALID,55,VALID,0.629687,
2011-01-17, 01:33:05,VALID,998.285,VALID,0,VALID,91.792,VALID,0,VALID,23.7988,VALID,55,VALID,0.507031,
2011-01-17, 01:34:05,VALID,998.282,VALID,0,VALID,91.8148,VALID,0,VALID,23.7988,VALID,55,VALID,0.458203,
2011-01-17, 01:35:05,VALID,998.315,VALID,0,VALID,91.8301,VALID,0,VALID,23.797,VALID,55,VALID,0.250391,
2011-01-17, 01:36:05,VALID,998.298,VALID,0,VALID,91.8454,VALID,0,VALID,23.8165,VALID,55,VALID,0.123438,
2011-01-17, 01:37:05,VALID,998.318,VALID,0,VALID,91.8606,VALID,0,VALID,23.8165,VALID,55,VALID,0.185547,
2011-01-17, 01:38:05,VALID,998.32,VALID,0,VALID,91.8911,VALID,0,VALID,23.8555,VALID,55,VALID,0.0136719,
2011-01-17, 01:39:05,VALID,998.322,VALID,0,VALID,91.914,VALID,0,VALID,23.8555,VALID,107,VALID,0.692969,
2011-01-17, 01:40:05,VALID,998.277,VALID,0,VALID,91.9293,VALID,0,VALID,23.8963,VALID,108,VALID,0.89375,
2011-01-17, 01:41:05,VALID,998.26,VALID,0,VALID,91.9293,VALID,0,VALID,23.875,VALID,108,VALID,0.7375,
2011-01-17, 01:42:05,VALID,998.26,VALID,0,VALID,91.914,VALID,0,VALID,23.875,VALID,107,VALID,0.451172,
2011-01-17, 01:43:05,VALID,998.218,VALID,0,VALID,91.8606,VALID,0,VALID,23.9159,VALID,107,VALID,0.141406,
2011-01-17, 01:44:05,VALID,998.199,VALID,0,VALID,91.8377,VALID,0,VALID,23.9354,VALID,107,VALID,0.222266,
2011-01-17, 01:45:05,VALID,998.171,VALID,0,VALID,91.7843,VALID,0,VALID,23.9549,VALID,107,VALID,0.463672,
2011-01-17, 01:46:05,VALID,998.149,VALID,0,VALID,91.7767,VALID,0,VALID,23.9531,VALID,107,VALID,0.7,
2011-01-17, 01:47:05,VALID,998.108,VALID,0,VALID,91.7462,VALID,0,VALID,23.9939,VALID,108,VALID,0.777344,
2011-01-17, 01:48:05,VALID,998.076,VALID,0,VALID,91.6851,VALID,0,VALID,23.9921,VALID,108,VALID,0.520312,
2011-01-17, 01:49:05,VALID,998.048,VALID,0,VALID,91.6394,VALID,0,VALID,24.0134,VALID,108,VALID,0.417188,
2011-01-17, 01:50:05,VALID,998.055,VALID,0,VALID,91.6012,VALID,0,VALID,24.0134,VALID,107,VALID,0.380078,
2011-01-17, 01:51:05,VALID,998.049,VALID,0,VALID,91.5783,VALID,0,VALID,23.9726,VALID,107,VALID,0.355078,
2011-01-17, 01:52:05,VALID,998.026,VALID,0,VALID,91.5402,VALID,0,VALID,23.9939,VALID,107,VALID,0.000390625,
2011-01-17, 01:53:05,VALID,998.024,VALID,0,VALID,91.5097,VALID,0.112286,VALID,23.9726,VALID,107,VALID,0.194141,
2011-01-17, 01:54:05,VALID,998.018,VALID,0,VALID,91.5249,VALID,0,VALID,23.9939,VALID,86,VALID,0.620313,
2011-01-17, 01:55:05,VALID,998.013,VALID,0,VALID,91.5173,VALID,0,VALID,23.9726,VALID,86,VALID,0.992969,
2011-01-17, 01:56:05,VALID,998.042,VALID,0,VALID,91.5097,VALID,0,VALID,23.9939,VALID,91,VALID,1.00195,
2011-01-17, 01:57:05,VALID,998.049,VALID,0,VALID,91.4791,VALID,0,VALID,23.9531,VALID,85,VALID,0.8375,
2011-01-17, 01:58:05,VALID,998.074,VALID,0,VALID,91.4639,VALID,0,VALID,23.9549,VALID,61,VALID,0.698047,
2011-01-17, 01:59:05,VALID,998.08,VALID,0,VALID,91.3952,VALID,0,VALID,23.914,VALID,39,VALID,0.650391,
2011-01-17, 02:00:05,VALID,998.104,VALID,0,VALID,91.3189,VALID,0,VALID,23.875,VALID,39,VALID,0.708594,
2011-01-17, 02:01:05,VALID,998.129,VALID,0,VALID,91.2655,VALID,0.112286,VALID,23.8555,VALID,39,VALID,0.696094,
2011-01-17, 02:02:05,VALID,998.122,VALID,0,VALID,91.3037,VALID,0,VALID,23.8555,VALID,23,VALID,0.968359,
2011-01-17, 02:03:05,VALID,998.167,VALID,0,VALID,91.3418,VALID,0,VALID,23.8573,VALID,24,VALID,0.946094,
2011-01-17, 02:04:05,VALID,998.193,VALID,0,VALID,91.3647,VALID,0,VALID,23.8573,VALID,22,VALID,1.06758,
2011-01-17, 02:05:05,VALID,998.192,VALID,0,VALID,91.4028,VALID,0,VALID,23.8378,VALID,21,VALID,0.969531,
2011-01-17, 02:06:05,VALID,998.224,VALID,0,VALID,91.3952,VALID,0,VALID,23.797,VALID,21,VALID,0.892969,
2011-01-17, 02:07:05,VALID,998.219,VALID,0,VALID,91.4028,VALID,0,VALID,23.7793,VALID,21,VALID,0.980859,
2011-01-17, 02:08:05,VALID,998.219,VALID,0,VALID,91.4563,VALID,0,VALID,23.7988,VALID,21,VALID,0.904688,
2011-01-17, 02:09:05,VALID,998.206,VALID,0,VALID,91.502,VALID,0,VALID,23.7793,VALID,21,VALID,0.770703,
2011-01-17, 02:10:05,VALID,998.203,VALID,0,VALID,91.5173,VALID,0,VALID,23.7793,VALID,21,VALID,0.684375,
2011-01-17, 02:11:05,VALID,998.206,VALID,0,VALID,91.5783,VALID,0,VALID,23.7793,VALID,21,VALID,0.187109,
2011-01-17, 02:12:05,VALID,998.176,VALID,0,VALID,91.6088,VALID,0,VALID,23.7579,VALID,21,VALID,0.0421875,
2011-01-17, 02:13:05,VALID,998.168,VALID,0,VALID,91.6317,VALID,0,VALID,23.7775,VALID,21,VALID,0,
2011-01-17, 02:14:05,VALID,998.167,VALID,0,VALID,91.6546,VALID,0,VALID,23.7579,VALID,21,VALID,0.0769531,
2011-01-17, 02:15:04,VALID,998.176,VALID,0,VALID,91.6623,VALID,0,VALID,23.7579,VALID,21,VALID,0,
2011-01-17, 02:16:04,VALID,998.153,VALID,0,VALID,91.6851,VALID,0,VALID,23.7384,VALID,21,VALID,0,
2011-01-17, 02:17:04,VALID,998.178,VALID,0,VALID,91.7233,VALID,0,VALID,23.7384,VALID,21,VALID,0,
2011-01-17, 02:18:04,VALID,998.201,VALID,0,VALID,91.7309,VALID,0,VALID,23.7579,VALID,21,VALID,0,
2011-01-17, 02:19:04,VALID,998.218,VALID,0,VALID,91.7385,VALID,0,VALID,23.7597,VALID,21,VALID,0.0433594,
2011-01-17, 02:20:04,VALID,998.214,VALID,0,VALID,91.7843,VALID,0,VALID,23.7579,VALID,21,VALID,0.298828,
2011-01-17, 02:21:04,VALID,998.196,VALID,0,VALID,91.8072,VALID,0,VALID,23.7793,VALID,21,VALID,0.313281,
2011-01-17, 02:22:04,VALID,998.178,VALID,0,VALID,91.8148,VALID,0,VALID,23.7775,VALID,21,VALID,0.259766,
2011-01-17, 02:23:04,VALID,998.15,VALID,0,VALID,91.792,VALID,0.112286,VALID,23.7775,VALID,21,VALID,0.0667969,
2011-01-17, 02:24:04,VALID,998.133,VALID,0,VALID,91.7843,VALID,0,VALID,23.8183,VALID,21,VALID,0.195703,
2011-01-17, 02:25:04,VALID,998.085,VALID,0,VALID,91.7767,VALID,0,VALID,23.8183,VALID,21,VALID,0.344922,
2011-01-17, 02:26:04,VALID,998.074,VALID,0,VALID,91.792,VALID,0,VALID,23.8555,VALID,21,VALID,0.317969,
2011-01-17, 02:27:04,VALID,998.019,VALID,0,VALID,91.7462,VALID,0,VALID,23.836,VALID,21,VALID,0.245703,
2011-01-17, 02:28:04,VALID,997.997,VALID,0,VALID,91.7385,VALID,0,VALID,23.8573,VALID,21,VALID,0.589063,
2011-01-17, 02:29:04,VALID,997.964,VALID,0,VALID,91.7462,VALID,0,VALID,23.836,VALID,21,VALID,0.747266,
2011-01-17, 02:30:04,VALID,997.95,VALID,0,VALID,91.7004,VALID,0,VALID,23.8378,VALID,27,VALID,0.797266,
2011-01-17, 02:31:04,VALID,997.94,VALID,0,VALID,91.6775,VALID,0,VALID,23.8183,VALID,37,VALID,0.719531,
2011-01-17, 02:32:04,VALID,997.925,VALID,0,VALID,91.6546,VALID,0,VALID,23.797,VALID,37,VALID,0.494922,
2011-01-17, 02:33:04,VALID,997.919,VALID,0,VALID,91.5936,VALID,0,VALID,23.7988,VALID,37,VALID,0.440234,
2011-01-17, 02:34:04,VALID,997.903,VALID,0,VALID,91.5402,VALID,0,VALID,23.7988,VALID,37,VALID,0.183984,
2011-01-17, 02:35:04,VALID,997.867,VALID,0,VALID,91.5326,VALID,0,VALID,23.7988,VALID,37,VALID,0,
2011-01-17, 02:36:04,VALID,997.874,VALID,0,VALID,91.4944,VALID,0,VALID,23.7775,VALID,37,VALID,0,
2011-01-17, 02:37:04,VALID,997.898,VALID,0,VALID,91.4334,VALID,0,VALID,23.7793,VALID,37,VALID,0.323438,
2011-01-17, 02:38:04,VALID,997.906,VALID,0,VALID,91.3418,VALID,0,VALID,23.7402,VALID,37,VALID,0.293359,
2011-01-17, 02:39:04,VALID,997.929,VALID,0,VALID,91.3418,VALID,0,VALID,23.7402,VALID,37,VALID,0,
2011-01-17, 02:40:04,VALID,997.915,VALID,0,VALID,91.3647,VALID,0,VALID,23.7207,VALID,37,VALID,0,
2011-01-17, 02:41:04,VALID,997.917,VALID,0,VALID,91.3876,VALID,0,VALID,23.7402,VALID,37,VALID,0.317578,
2011-01-17, 02:42:04,VALID,997.901,VALID,0,VALID,91.3952,VALID,0,VALID,23.7207,VALID,52,VALID,0.625,
2011-01-17, 02:43:04,VALID,997.941,VALID,0,VALID,91.4944,VALID,0,VALID,23.7189,VALID,97,VALID,0.978906,
2011-01-17, 02:44:04,VALID,997.934,VALID,0,VALID,91.5173,VALID,0,VALID,23.7402,VALID,97,VALID,0.919141,
2011-01-17, 02:45:04,VALID,997.924,VALID,0,VALID,91.4791,VALID,0.112286,VALID,23.7189,VALID,97,VALID,0.885156,
2011-01-17, 02:46:04,VALID,997.9,VALID,0,VALID,91.4639,VALID,0,VALID,23.7207,VALID,97,VALID,0.803906,
2011-01-17, 02:47:04,VALID,997.928,VALID,0,VALID,91.4105,VALID,0,VALID,23.7012,VALID,97,VALID,0.494531,
2011-01-17, 02:48:04,VALID,997.977,VALID,0,VALID,91.3723,VALID,0,VALID,23.6604,VALID,97,VALID,0.407813,
2011-01-17, 02:49:04,VALID,997.963,VALID,0,VALID,91.3418,VALID,0,VALID,23.6427,VALID,97,VALID,0.391406,
2011-01-17, 02:50:04,VALID,998,VALID,0,VALID,91.3494,VALID,0,VALID,23.6019,VALID,97,VALID,0.594141,
2011-01-17, 02:51:04,VALID,998.001,VALID,0,VALID,91.4563,VALID,0,VALID,23.6427,VALID,96,VALID,0.686328,
2011-01-17, 02:52:04,VALID,997.968,VALID,0,VALID,91.5402,VALID,0,VALID,23.6427,VALID,96,VALID,0.728516,
2011-01-17, 02:53:04,VALID,997.988,VALID,0,VALID,91.6088,VALID,0,VALID,23.6214,VALID,97,VALID,0.558203,
2011-01-17, 02:54:04,VALID,997.968,VALID,0,VALID,91.6394,VALID,0,VALID,23.6409,VALID,97,VALID,0.304688,
2011-01-17, 02:55:04,VALID,997.91,VALID,0,VALID,91.6623,VALID,0,VALID,23.6427,VALID,97,VALID,0.201562,
2011-01-17, 02:56:04,VALID,997.919,VALID,0,VALID,91.7004,VALID,0,VALID,23.6214,VALID,97,VALID,0.210938,
2011-01-17, 02:57:04,VALID,997.872,VALID,0,VALID,91.7691,VALID,0,VALID,23.6214,VALID,97,VALID,0.0335938,
2011-01-17, 02:58:04,VALID,997.884,VALID,0,VALID,91.7843,VALID,0,VALID,23.6019,VALID,97,VALID,0,
2011-01-17, 02:59:04,VALID,997.876,VALID,0,VALID,91.8225,VALID,0,VALID,23.6036,VALID,97,VALID,0.0195313,
2011-01-17, 03:00:04,VALID,997.851,VALID,0,VALID,91.8683,VALID,0,VALID,23.6019,VALID,97,VALID,0.00234375,
2011-01-17, 03:01:04,VALID,997.82,VALID,0,VALID,91.8911,VALID,0,VALID,23.5823,VALID,97,VALID,0.0820313,
2011-01-17, 03:02:04,VALID,997.804,VALID,0,VALID,91.9445,VALID,0,VALID,23.6036,VALID,97,VALID,0.212109,
2011-01-17, 03:03:04,VALID,997.76,VALID,0,VALID,91.9522,VALID,0,VALID,23.5628,VALID,96,VALID,0.49375,
2011-01-17, 03:04:04,VALID,997.776,VALID,0,VALID,91.9751,VALID,0,VALID,23.5646,VALID,96,VALID,0.568359,
2011-01-17, 03:05:04,VALID,997.762,VALID,0,VALID,92.0132,VALID,0,VALID,23.5628,VALID,96,VALID,0.632031,
2011-01-17, 03:06:04,VALID,997.742,VALID,0,VALID,92.0666,VALID,0,VALID,23.5628,VALID,96,VALID,0.414844,
2011-01-17, 03:07:04,VALID,997.709,VALID,0,VALID,92.1048,VALID,0,VALID,23.6036,VALID,97,VALID,0.0367187,
2011-01-17, 03:08:04,VALID,997.698,VALID,0,VALID,92.1124,VALID,0,VALID,23.6232,VALID,96,VALID,0.305469,
2011-01-17, 03:09:04,VALID,997.691,VALID,0,VALID,92.1582,VALID,0,VALID,23.6232,VALID,96,VALID,0.696484,
2011-01-17, 03:10:04,VALID,997.685,VALID,0,VALID,92.1811,VALID,0,VALID,23.6232,VALID,73,VALID,0.927734,
2011-01-17, 03:11:04,VALID,997.69,VALID,0,VALID,92.1658,VALID,0,VALID,23.6427,VALID,66,VALID,0.903516,
2011-01-17, 03:12:04,VALID,997.671,VALID,0,VALID,92.1582,VALID,0,VALID,23.6427,VALID,55,VALID,0.869922,
2011-01-17, 03:13:04,VALID,997.731,VALID,0,VALID,92.0971,VALID,0.112286,VALID,23.5628,VALID,25,VALID,0.720312,
2011-01-17, 03:14:04,VALID,997.782,VALID,0,VALID,92.0666,VALID,0,VALID,23.5238,VALID,355,VALID,1.01328,
2011-01-17, 03:15:04,VALID,997.812,VALID,0,VALID,92.0666,VALID,0,VALID,23.5646,VALID,336,VALID,0.758594,
2011-01-17, 03:16:04,VALID,997.82,VALID,0,VALID,92.0285,VALID,0,VALID,23.5646,VALID,321,VALID,0.76875,
2011-01-17, 03:17:04,VALID,997.816,VALID,0,VALID,92.0437,VALID,0,VALID,23.5646,VALID,321,VALID,0.529688,
2011-01-17, 03:18:04,VALID,997.792,VALID,0,VALID,92.0666,VALID,0,VALID,23.5451,VALID,321,VALID,0.626562,
2011-01-17, 03:19:04,VALID,997.756,VALID,0,VALID,92.059,VALID,0,VALID,23.5646,VALID,20,VALID,0.820703,
2011-01-17, 03:20:04,VALID,997.749,VALID,0,VALID,92.0895,VALID,0,VALID,23.5451,VALID,23,VALID,0.852344,
2011-01-17, 03:21:04,VALID,997.76,VALID,0,VALID,92.059,VALID,0,VALID,23.5043,VALID,23,VALID,0.828906,
2011-01-17, 03:22:04,VALID,997.735,VALID,0,VALID,92.0056,VALID,0,VALID,23.4653,VALID,23,VALID,0.408984,
2011-01-17, 03:23:04,VALID,997.705,VALID,0,VALID,91.9751,VALID,0.112286,VALID,23.4263,VALID,23,VALID,0.330469,
2011-01-17, 03:24:04,VALID,997.711,VALID,0,VALID,91.9827,VALID,0,VALID,23.4263,VALID,23,VALID,0.298828,
2011-01-17, 03:25:04,VALID,997.717,VALID,0,VALID,91.998,VALID,0,VALID,23.4458,VALID,23,VALID,0.30625,
2011-01-17, 03:26:04,VALID,997.703,VALID,0,VALID,92.0209,VALID,0,VALID,23.4263,VALID,23,VALID,0.0953125,
2011-01-17, 03:27:04,VALID,997.697,VALID,0,VALID,92.0437,VALID,0,VALID,23.4458,VALID,23,VALID,0.252734,
2011-01-17, 03:28:04,VALID,997.692,VALID,0,VALID,92.0514,VALID,0,VALID,23.4458,VALID,23,VALID,0.276953,
2011-01-17, 03:29:04,VALID,997.675,VALID,0,VALID,92.0743,VALID,0,VALID,23.4458,VALID,23,VALID,0.377344,
2011-01-17, 03:30:04,VALID,997.712,VALID,0,VALID,92.0666,VALID,0,VALID,23.4263,VALID,23,VALID,0.733203,
2011-01-17, 03:31:04,VALID,997.716,VALID,0,VALID,92.0743,VALID,0,VALID,23.428,VALID,23,VALID,0.776563,
2011-01-17, 03:32:04,VALID,997.699,VALID,0,VALID,92.0895,VALID,0,VALID,23.4475,VALID,23,VALID,0.517578,
2011-01-17, 03:33:04,VALID,997.714,VALID,0,VALID,92.0895,VALID,0,VALID,23.4475,VALID,23,VALID,0.232812,
2011-01-17, 03:34:04,VALID,997.743,VALID,0,VALID,92.1048,VALID,0,VALID,23.4263,VALID,23,VALID,0.392578,
2011-01-17, 03:35:04,VALID,997.775,VALID,0,VALID,92.0895,VALID,0,VALID,23.4263,VALID,23,VALID,0.660156,
2011-01-17, 03:36:04,VALID,997.795,VALID,0,VALID,92.0666,VALID,0,VALID,23.4085,VALID,23,VALID,0.658203,
2011-01-17, 03:37:04,VALID,997.815,VALID,0,VALID,92.059,VALID,0,VALID,23.4085,VALID,23,VALID,0.746094,
2011-01-17, 03:38:04,VALID,997.805,VALID,0,VALID,92.0743,VALID,0,VALID,23.3872,VALID,23,VALID,0.608594,
2011-01-17, 03:39:04,VALID,997.842,VALID,0,VALID,92.0819,VALID,0,VALID,23.4085,VALID,23,VALID,0.172266,
2011-01-17, 03:40:04,VALID,997.846,VALID,0,VALID,92.0819,VALID,0,VALID,23.3872,VALID,23,VALID,0,
2011-01-17, 03:41:04,VALID,997.868,VALID,0,VALID,92.0666,VALID,0,VALID,23.389,VALID,23,VALID,0,
2011-01-17, 03:42:04,VALID,997.844,VALID,0,VALID,92.0437,VALID,0,VALID,23.389,VALID,23,VALID,0.0421875,
2011-01-17, 03:43:04,VALID,997.861,VALID,0,VALID,92.0743,VALID,0,VALID,23.3677,VALID,23,VALID,0.515234,
2011-01-17, 03:44:04,VALID,997.832,VALID,0,VALID,92.0819,VALID,0,VALID,23.4085,VALID,23,VALID,0.722656,
2011-01-17, 03:45:04,VALID,997.835,VALID,0,VALID,92.1277,VALID,0,VALID,23.428,VALID,13,VALID,0.962891,
2011-01-17, 03:46:04,VALID,997.844,VALID,0,VALID,92.1353,VALID,0,VALID,23.4475,VALID,12,VALID,1.01758,
2011-01-17, 03:47:04,VALID,997.803,VALID,0,VALID,92.1582,VALID,0,VALID,23.4671,VALID,13,VALID,0.859766,